Tracking 20093 objects as of 14-Dec-2019
HD Live streaming from Space Station
objects crossing your sky now

COSMOS 2251 DEB

Track COSMOS 2251 DEB now!
10-day predictions


NORAD ID: 34292
Int'l Code: 1993-036MN
Perigee: 595.5 km
Apogee: 693.3 km
Inclination: 74.1 °
Period: 97.5 minutes
Semi major axis: 7015 km
RCS: 0.0294 m2 (small)
Launch date: June 16, 1993
Source: Commonwealth of Independent States (former USSR) (CIS)
Launch site: PLESETSK MISSILE AND SPACE COMPLEX (PKMTR)

Note: This is SATELLITE DEBRIS
aabbcc
Your satellite tracking list
Your tracking list is empty




NASA's NSSDC Master Catalog

Two Line Element Set (TLE):
1 34292U 93036MN  19348.73759104  .00000798  00000-0  11252-3 0  9990
2 34292  74.0600 322.4538 0069708 231.4750 128.0164 14.77497706579092
Source of the keplerian elements: AFSPC